Location: Pedimozza
(42.0500°N, 9.3500°E)
Time: 04:06:08
(UTC+00:00)

ERS-1 Rocket - Pass Details

Date: 19 August 2019
Orbit: 754 x 757 km, 98.5° (Epoch: 14 October)

Event Time Altitude Azimuth Distance (km) Brightness Sun altitude
Exits shadow 20:18:24 38° 99° (E) 1,138 3.4 -20.3°
Maximum altitude 20:19:21 43° 70° (ENE) 1,061 3.5 -20.5°
Drops below altitude 10° 20:24:05 10° 0° (N) 2,289 6.0 -21.1°
Sets 20:26:28 0° 354° (N) 3,218 7.0 -21.5°
